This is the latest recevied weather packets stored in our database for station/object EI8EPB-1. If no packets are shown the sender has not sent any weather packets the latest 10 day(s).
| Time | Temp. | Humidity | Pressure | Rain* | Wind** | Luminosity | Snow |
|---|---|---|---|---|---|---|---|
| 1777991403 | 12.78° C | 77% | 1014.8 hPa | 0 mm | - | - | - |
| 1777991103 | 12.78° C | 78% | 1014.8 hPa | 0 mm | - | - | - |
| 1777990803 | 12.78° C | 78% | 1014.9 hPa | 0 mm | - | - | - |
| 1777990504 | 12.78° C | 79% | 1014.9 hPa | 0 mm | - | - | - |
| 1777989903 | 12.22° C | 81% | 1015 hPa | 0 mm | - | - | - |
| 1777989603 | 12.22° C | 80% | 1015.1 hPa | 0 mm | - | - | - |
| 1777989303 | 12.22° C | 79% | 1015.1 hPa | 0 mm | - | - | - |
| 1777989003 | 12.22° C | 78% | 1015.1 hPa | 0 mm | - | - | - |
| 1777988703 | 12.78° C | 75% | 1015.1 hPa | 0 mm | - | - | - |
| 1777988404 | 12.78° C | 74% | 1015.1 hPa | 0 mm | - | - | - |
| 1777988103 | 13.33° C | 73% | 1015.1 hPa | 0 mm | - | - | - |
| 1777987803 | 13.33° C | 72% | 1015.1 hPa | 0 mm | - | - | - |
| 1777987503 | 13.33° C | 71% | 1015.1 hPa | 0 mm | - | - | - |
| 1777987203 | 13.89° C | 71% | 1015.1 hPa | 0 mm | - | - | - |
| 1777986904 | 13.89° C | 69% | 1015.1 hPa | 0 mm | - | - | - |
| 1777986603 | 13.89° C | 68% | 1015.1 hPa | 0 mm | - | - | - |
| 1777986303 | 13.89° C | 69% | 1015.1 hPa | 0 mm | - | - | - |
| 1777986004 | 13.89° C | 69% | 1015.1 hPa | 0 mm | - | - | - |
| 1777985703 | 14.44° C | 71% | 1015.1 hPa | 0 mm | - | - | - |
| 1777985403 | 13.89° C | 72% | 1015.1 hPa | 0 mm | - | - | - |
| 1777985103 | 13.33° C | 73% | 1015.1 hPa | 0 mm | - | - | - |
| 1777984803 | 13.33° C | 73% | 1015.1 hPa | 0 mm | - | - | - |
| 1777984503 | 12.78° C | 75% | 1015.2 hPa | 0 mm | - | - | - |
| 1777984203 | 12.78° C | 75% | 1015.2 hPa | 0 mm | - | - | - |
| 1777983903 | 12.78° C | 77% | 1015.2 hPa | 0 mm | - | - | - |
* Rain latest hour (hover to see other rain measurements)
** Current wind speed in m/s (hover to see current wind gust speed)